TimeCDT,TemperatureF,Dew PointF,Humidity,Sea Level PressureIn,VisibilityMPH,Wind Direction,Wind SpeedMPH,Gust SpeedMPH,PrecipitationIn,Events,Conditions,WindDirDegrees,DateUTC
12:15 AM,46.4,41.0,81,29.98,10.0,Calm,Calm,-,N/A,,Scattered Clouds,0,2012-10-15 05:15:00
12:35 AM,44.6,39.2,81,29.99,10.0,Calm,Calm,-,N/A,,Clear,0,2012-10-15 05:35:00
12:55 AM,44.6,39.2,81,29.99,10.0,Calm,Calm,-,N/A,,Clear,0,2012-10-15 05:55:00
1:15 AM,44.6,39.2,81,29.99,10.0,Calm,Calm,-,N/A,,Clear,0,2012-10-15 06:15:00
1:35 AM,44.6,39.2,81,29.99,10.0,Calm,Calm,-,N/A,,Clear,0,2012-10-15 06:35:00
1:55 AM,42.8,37.4,81,29.99,10.0,Calm,Calm,-,N/A,,Clear,0,2012-10-15 06:55:00
2:15 AM,42.8,37.4,81,29.99,10.0,Calm,Calm,-,N/A,,Clear,0,2012-10-15 07:15:00
2:35 AM,42.8,37.4,81,29.99,10.0,Calm,Calm,-,N/A,,Scattered Clouds,0,2012-10-15 07:35:00
2:55 AM,42.8,37.4,81,29.99,10.0,Calm,Calm,-,N/A,,Scattered Clouds,0,2012-10-15 07:55:00
3:15 AM,42.8,37.4,81,29.98,10.0,Calm,Calm,-,N/A,,Clear,0,2012-10-15 08:15:00
3:35 AM,42.8,37.4,81,29.98,10.0,Calm,Calm,-,N/A,,Clear,0,2012-10-15 08:35:00
3:55 AM,41.0,37.4,87,29.98,10.0,Calm,Calm,-,N/A,,Clear,0,2012-10-15 08:55:00
4:15 AM,42.8,37.4,81,29.98,10.0,Calm,Calm,-,N/A,,Clear,0,2012-10-15 09:15:00
4:35 AM,41.0,35.6,81,29.98,10.0,Calm,Calm,-,N/A,,Clear,0,2012-10-15 09:35:00
4:55 AM,42.8,37.4,81,29.98,10.0,Calm,Calm,-,N/A,,Clear,0,2012-10-15 09:55:00
5:15 AM,41.0,37.4,87,29.98,10.0,Calm,Calm,-,N/A,,Clear,0,2012-10-15 10:15:00
5:55 AM,41.0,35.6,81,29.99,10.0,Calm,Calm,-,N/A,,Clear,0,2012-10-15 10:55:00
6:15 AM,39.2,35.6,87,29.99,10.0,Calm,Calm,-,N/A,,Clear,0,2012-10-15 11:15:00
6:35 AM,39.2,35.6,87,29.99,10.0,Calm,Calm,-,N/A,,Clear,0,2012-10-15 11:35:00
6:55 AM,39.2,35.6,87,29.99,10.0,Calm,Calm,-,N/A,,Clear,0,2012-10-15 11:55:00
7:15 AM,39.2,35.6,87,29.99,10.0,Calm,Calm,-,N/A,,Clear,0,2012-10-15 12:15:00
7:35 AM,39.2,35.6,87,29.99,10.0,Calm,Calm,-,N/A,,Clear,0,2012-10-15 12:35:00
7:55 AM,39.2,35.6,87,29.99,10.0,Calm,Calm,-,N/A,,Clear,0,2012-10-15 12:55:00
8:15 AM,41.0,37.4,87,29.99,10.0,Calm,Calm,-,N/A,,Clear,0,2012-10-15 13:15:00
8:35 AM,42.8,39.2,87,30.00,10.0,Calm,Calm,-,N/A,,Clear,0,2012-10-15 13:35:00
8:55 AM,44.6,41.0,87,30.00,10.0,Calm,Calm,-,N/A,,Clear,0,2012-10-15 13:55:00
9:15 AM,48.2,42.8,82,29.99,10.0,Calm,Calm,-,N/A,,Clear,0,2012-10-15 14:15:00
9:35 AM,51.8,44.6,76,29.99,10.0,Calm,Calm,-,N/A,,Clear,0,2012-10-15 14:35:00
9:55 AM,53.6,46.4,77,29.99,10.0,Calm,Calm,-,N/A,,Clear,0,2012-10-15 14:55:00
10:15 AM,55.4,46.4,72,30.00,10.0,Calm,Calm,-,N/A,,Clear,0,2012-10-15 15:15:00
10:35 AM,60.8,46.4,59,29.99,10.0,SE,3.5,-,N/A,,Clear,140,2012-10-15 15:35:00
10:55 AM,62.6,42.8,48,29.99,10.0,SE,4.6,-,N/A,,Clear,130,2012-10-15 15:55:00
11:15 AM,64.4,42.8,45,29.98,10.0,SSE,6.9,-,N/A,,Clear,150,2012-10-15 16:15:00
11:35 AM,66.2,42.8,43,29.98,10.0,SSE,5.8,-,N/A,,Clear,150,2012-10-15 16:35:00
11:55 AM,66.2,41.0,40,29.97,10.0,South,6.9,-,N/A,,Clear,170,2012-10-15 16:55:00
12:15 PM,68.0,39.2,35,29.97,10.0,SSE,6.9,-,N/A,,Clear,150,2012-10-15 17:15:00
12:35 PM,69.8,39.2,33,29.96,10.0,SSE,6.9,-,N/A,,Clear,160,2012-10-15 17:35:00
12:55 PM,69.8,39.2,33,29.95,10.0,South,6.9,-,N/A,,Clear,170,2012-10-15 17:55:00
1:15 PM,71.6,39.2,31,29.94,10.0,SSE,6.9,-,N/A,,Clear,160,2012-10-15 18:15:00
1:35 PM,71.6,37.4,29,29.93,10.0,South,4.6,-,N/A,,Clear,170,2012-10-15 18:35:00
1:55 PM,71.6,39.2,31,29.92,10.0,South,6.9,-,N/A,,Clear,190,2012-10-15 18:55:00
2:15 PM,73.4,39.2,29,29.91,10.0,South,6.9,-,N/A,,Clear,180,2012-10-15 19:15:00
2:35 PM,73.4,39.2,29,29.90,10.0,South,6.9,-,N/A,,Clear,180,2012-10-15 19:35:00
2:55 PM,73.4,37.4,27,29.90,10.0,SSW,6.9,-,N/A,,Clear,200,2012-10-15 19:55:00
3:15 PM,73.4,37.4,27,29.89,10.0,South,6.9,-,N/A,,Clear,170,2012-10-15 20:15:00
3:35 PM,73.4,39.2,29,29.88,10.0,South,8.1,-,N/A,,Clear,180,2012-10-15 20:35:00
3:55 PM,75.2,37.4,25,29.87,10.0,South,8.1,-,N/A,,Clear,170,2012-10-15 20:55:00
4:15 PM,75.2,37.4,25,29.87,10.0,SSE,9.2,-,N/A,,Clear,160,2012-10-15 21:15:00
4:35 PM,75.2,37.4,25,29.86,10.0,South,8.1,-,N/A,,Clear,180,2012-10-15 21:35:00
4:55 PM,75.2,37.4,25,29.86,10.0,South,10.4,-,N/A,,Clear,170,2012-10-15 21:55:00
5:15 PM,73.4,39.2,29,29.85,10.0,South,9.2,-,N/A,,Clear,170,2012-10-15 22:15:00
5:35 PM,73.4,39.2,29,29.85,10.0,SSE,9.2,-,N/A,,Clear,160,2012-10-15 22:35:00
5:55 PM,71.6,41.0,33,29.84,10.0,SSE,6.9,-,N/A,,Clear,160,2012-10-15 22:55:00
6:15 PM,69.8,42.8,38,29.84,10.0,SSE,5.8,-,N/A,,Clear,160,2012-10-15 23:15:00
6:35 PM,69.8,42.8,38,29.83,10.0,SE,5.8,-,N/A,,Clear,140,2012-10-15 23:35:00
6:55 PM,66.2,42.8,43,29.83,10.0,SE,6.9,-,N/A,,Clear,140,2012-10-15 23:55:00
7:15 PM,66.2,44.6,46,29.83,10.0,SE,5.8,-,N/A,,Clear,140,2012-10-16 00:15:00
7:35 PM,64.4,44.6,49,29.83,10.0,SSE,3.5,-,N/A,,Clear,160,2012-10-16 00:35:00
7:55 PM,64.4,44.6,49,29.83,10.0,SSE,6.9,-,N/A,,Clear,150,2012-10-16 00:55:00
8:15 PM,62.6,44.6,52,29.83,10.0,SSE,3.5,-,N/A,,Scattered Clouds,160,2012-10-16 01:15:00
8:35 PM,59.0,46.4,63,29.83,10.0,Calm,Calm,-,N/A,,Clear,0,2012-10-16 01:35:00
8:55 PM,59.0,46.4,63,29.83,10.0,Calm,Calm,-,N/A,,Scattered Clouds,0,2012-10-16 01:55:00
9:15 PM,59.0,46.4,63,29.83,10.0,SSW,3.5,-,N/A,,Scattered Clouds,200,2012-10-16 02:15:00
9:35 PM,59.0,46.4,63,29.83,10.0,SSW,4.6,-,N/A,,Scattered Clouds,200,2012-10-16 02:35:00
9:55 PM,59.0,46.4,63,29.83,10.0,Calm,Calm,-,N/A,,Clear,0,2012-10-16 02:55:00
10:15 PM,59.0,46.4,63,29.82,10.0,Calm,Calm,-,N/A,,Clear,0,2012-10-16 03:15:00
10:35 PM,57.2,46.4,67,29.82,10.0,South,3.5,-,N/A,,Clear,190,2012-10-16 03:35:00
10:55 PM,57.2,46.4,67,29.81,10.0,South,4.6,-,N/A,,Scattered Clouds,170,2012-10-16 03:55:00
11:15 PM,59.0,46.4,63,29.81,10.0,South,6.9,-,N/A,,Scattered Clouds,170,2012-10-16 04:15:00
11:35 PM,60.8,46.4,59,29.80,10.0,South,6.9,-,N/A,,Scattered Clouds,170,2012-10-16 04:35:00
11:55 PM,60.8,46.4,59,29.79,10.0,South,6.9,-,N/A,,Scattered Clouds,170,2012-10-16 04:55:00